Tracking 19634 objects as of 21-May-2019
HD Live streaming from Space Station
objects crossing your sky now

COSMOS 1013

Track COSMOS 1013 now!
10-day predictions
COSMOS 1013 is classified as:


NORAD ID: 10930
Int'l Code: 1978-056A
Perigee: 1,484.9 km
Apogee: 1,561.5 km
Inclination: 74.0 °
Period: 116.3 minutes
Semi major axis: 7894 km
RCS: 0.7053 m2 (medium)
Launch date: June 7, 1978
Source: Commonwealth of Independent States (former USSR) (CIS)
Launch site: PLESETSK MISSILE AND SPACE COMPLEX (PKMTR)
aabbcc
Your satellite tracking list
Your tracking list is empty




NASA's NSSDC Master Catalog

Two Line Element Set (TLE):
1 10930U 78056A   19140.78809366 -.00000007  00000-0  69061-4 0  9995
2 10930  74.0273 247.6008 0048506 240.1953 235.2842 12.37780748850570
Source of the keplerian elements: AFSPC